SAS2988 EKCH-ENCN

Flight info

Callsign SAS2988
Flight time 0h 48m
Altitude 30000
Route GOLGA DCT LAGUM L621 AMSEV
Aircraft A320/M-SDE3FGHIRWY/LB1

Departure

Time 2026-05-05 05:46
Airport Copenhagen Kastrup Airport (EKCH)

Arrival

Time 2026-05-05 06:34
Airport Kristiansand Airport (ENCN)
Time Latitude Longitude Altitude Speed Heading
2026-05-05 05:10 55.62755 12.64476 24 ft 0 kts 102°
2026-05-05 05:37 55.62758 12.64448 24 ft 4 kts 102°
2026-05-05 05:37 55.62763 12.64401 26 ft 4 kts 102°
2026-05-05 05:37 55.62765 12.64389 25 ft 0 kts 102°
2026-05-05 05:40 55.62764 12.64391 24 ft 0 kts 102°
2026-05-05 05:40 55.62741 12.64387 24 ft 6 kts 210°
2026-05-05 05:40 55.62691 12.64333 24 ft 10 kts 206°
2026-05-05 05:41 55.62619 12.64273 25 ft 13 kts 209°
2026-05-05 05:41 55.62541 12.64207 24 ft 12 kts 177°
2026-05-05 05:41 55.62483 12.64316 26 ft 14 kts 126°
2026-05-05 05:41 55.62412 12.64442 24 ft 15 kts 164°
2026-05-05 05:42 55.62300 12.64403 23 ft 18 kts 192°
2026-05-05 05:42 55.62172 12.64322 23 ft 16 kts 205°
2026-05-05 05:42 55.62073 12.64249 24 ft 2 kts 211°
2026-05-05 05:42 55.62068 12.64243 24 ft 3 kts 211°
2026-05-05 05:43 55.62038 12.64211 25 ft 8 kts 211°
2026-05-05 05:43 55.61940 12.64127 24 ft 10 kts 203°
2026-05-05 05:43 55.61868 12.64079 24 ft 13 kts 194°
2026-05-05 05:43 55.61771 12.64080 24 ft 15 kts 174°
2026-05-05 05:44 55.61666 12.64091 27 ft 13 kts 179°
2026-05-05 05:44 55.61588 12.64012 26 ft 12 kts 221°
2026-05-05 05:44 55.61584 12.64007 26 ft 0 kts 221°
2026-05-05 05:45 55.61576 12.63995 29 ft 16 kts 221°
2026-05-05 05:45 55.61299 12.63560 27 ft 87 kts 221°
2026-05-05 05:45 55.60694 12.62623 27 ft 141 kts 221°
2026-05-05 05:45 55.59863 12.61365 220 ft 167 kts 224°
2026-05-05 05:46 55.58985 12.60014 904 ft 168 kts 224°
2026-05-05 05:46 55.58098 12.58643 1500 ft 175 kts 224°
2026-05-05 05:46 55.57126 12.57132 1791 ft 198 kts 223°
2026-05-05 05:46 55.56170 12.55227 2055 ft 219 kts 249°
2026-05-05 05:47 55.55988 12.52479 2442 ft 239 kts 276°
2026-05-05 05:47 55.56216 12.49470 3137 ft 252 kts 281°
2026-05-05 05:47 55.56530 12.46414 4124 ft 254 kts 281°
2026-05-05 05:47 55.56845 12.43389 5146 ft 254 kts 279°
2026-05-05 05:48 55.57148 12.40313 6149 ft 255 kts 278°
2026-05-05 05:48 55.57433 12.37200 6763 ft 256 kts 278°
2026-05-05 05:48 55.58020 12.34207 7437 ft 263 kts 298°
2026-05-05 05:48 55.59273 12.31806 8322 ft 273 kts 321°
2026-05-05 05:49 55.61060 12.30517 9180 ft 287 kts 346°
2026-05-05 05:49 55.63064 12.30101 10018 ft 292 kts 348°
2026-05-05 05:49 55.65149 12.29720 10398 ft 313 kts 349°
2026-05-05 05:49 55.67382 12.29312 10763 ft 329 kts 349°
2026-05-05 05:50 55.69653 12.28905 11437 ft 335 kts 349°
2026-05-05 05:50 55.71988 12.28490 12172 ft 339 kts 348°
2026-05-05 05:50 55.74343 12.28065 12901 ft 343 kts 348°
2026-05-05 05:50 55.76705 12.27454 13635 ft 342 kts 340°
2026-05-05 05:51 55.78942 12.26092 14292 ft 339 kts 329°
2026-05-05 05:51 55.80992 12.24056 14944 ft 338 kts 323°
2026-05-05 05:51 55.83015 12.21883 15592 ft 341 kts 323°
2026-05-05 05:51 55.85059 12.19689 16227 ft 345 kts 323°
2026-05-05 05:52 55.87124 12.17473 16862 ft 348 kts 323°
2026-05-05 05:52 55.89181 12.15270 17496 ft 352 kts 323°
2026-05-05 05:52 55.91290 12.13007 18140 ft 355 kts 323°
2026-05-05 05:52 55.93417 12.10730 18702 ft 359 kts 323°
2026-05-05 05:53 55.95569 12.08425 19286 ft 362 kts 322°
2026-05-05 05:53 55.97737 12.06099 19879 ft 365 kts 322°
2026-05-05 05:53 55.99920 12.03747 20498 ft 368 kts 323°
2026-05-05 05:53 56.02120 12.01375 21064 ft 371 kts 323°
2026-05-05 05:54 56.04341 11.98983 21630 ft 374 kts 323°
2026-05-05 05:54 56.06569 11.96657 22164 ft 378 kts 324°
2026-05-05 05:54 56.08869 11.94321 22709 ft 382 kts 325°
2026-05-05 05:54 56.11202 11.91987 23268 ft 386 kts 325°
2026-05-05 05:55 56.13556 11.89634 23749 ft 389 kts 325°
2026-05-05 05:55 56.15925 11.87256 24209 ft 392 kts 325°
2026-05-05 05:55 56.18309 11.84848 24661 ft 394 kts 325°
2026-05-05 05:55 56.20703 11.82411 25101 ft 397 kts 325°
2026-05-05 05:56 56.23112 11.79950 25546 ft 400 kts 325°
2026-05-05 05:56 56.25538 11.77471 25978 ft 402 kts 325°
2026-05-05 05:56 56.27942 11.75012 26400 ft 405 kts 325°
2026-05-05 05:56 56.30398 11.72502 26841 ft 407 kts 325°
2026-05-05 05:57 56.32767 11.69741 27240 ft 404 kts 316°
2026-05-05 05:57 56.34841 11.66360 27637 ft 401 kts 308°
2026-05-05 05:57 56.36678 11.62587 28034 ft 402 kts 306°
2026-05-05 05:57 56.38518 11.58772 28429 ft 404 kts 306°
2026-05-05 05:58 56.40371 11.54935 28843 ft 406 kts 306°
2026-05-05 05:58 56.42207 11.51137 29246 ft 408 kts 306°
2026-05-05 05:58 56.44078 11.47272 29629 ft 410 kts 306°
2026-05-05 05:58 56.45958 11.43378 29918 ft 412 kts 306°
2026-05-05 05:59 56.47815 11.39530 29955 ft 398 kts 306°
2026-05-05 05:59 56.49612 11.35810 29955 ft 389 kts 306°
2026-05-05 05:59 56.53135 11.28459 29955 ft 385 kts 305°
2026-05-05 06:00 56.56609 11.21154 29956 ft 385 kts 305°
2026-05-05 06:00 56.60106 11.13812 29956 ft 385 kts 305°
2026-05-05 06:01 56.63594 11.06474 29966 ft 382 kts 305°
2026-05-05 06:01 56.67051 10.99161 29962 ft 381 kts 304°
2026-05-05 06:02 56.70490 10.91841 29960 ft 381 kts 304°
2026-05-05 06:02 56.73911 10.84563 29958 ft 381 kts 304°
2026-05-05 06:03 56.77350 10.77227 29954 ft 381 kts 304°
2026-05-05 06:03 56.80781 10.69875 29954 ft 380 kts 304°
2026-05-05 06:04 56.84212 10.62520 29953 ft 380 kts 304°
2026-05-05 06:04 56.87611 10.55200 29974 ft 380 kts 304°
2026-05-05 06:05 56.91020 10.47834 29973 ft 379 kts 304°
2026-05-05 06:05 56.94420 10.40473 29966 ft 378 kts 304°
2026-05-05 06:06 56.97797 10.33140 29959 ft 374 kts 304°
2026-05-05 06:06 57.01052 10.26077 29962 ft 356 kts 303°
2026-05-05 06:07 57.04216 10.19172 29966 ft 352 kts 303°
2026-05-05 06:07 57.07349 10.12272 29971 ft 351 kts 303°
2026-05-05 06:08 57.10477 10.05382 29973 ft 350 kts 303°
2026-05-05 06:08 57.13596 9.98508 29975 ft 351 kts 303°
2026-05-05 06:09 57.15163 9.95036 29976 ft 363 kts 303°
2026-05-05 06:09 57.16790 9.91418 29975 ft 369 kts 303°
2026-05-05 06:09 57.20080 9.84108 29975 ft 371 kts 303°
2026-05-05 06:10 57.23383 9.76768 29970 ft 372 kts 303°
2026-05-05 06:10 57.25031 9.73100 29766 ft 370 kts 303°
2026-05-05 06:10 57.26661 9.69474 29353 ft 365 kts 303°
2026-05-05 06:11 57.28246 9.65943 29034 ft 359 kts 303°
2026-05-05 06:11 57.29831 9.62397 28626 ft 356 kts 303°
2026-05-05 06:11 57.31391 9.58891 28274 ft 351 kts 302°
2026-05-05 06:11 57.32933 9.55419 27934 ft 347 kts 303°
2026-05-05 06:12 57.34456 9.51979 27575 ft 344 kts 303°
2026-05-05 06:12 57.35965 9.48573 27222 ft 341 kts 303°
2026-05-05 06:12 57.37465 9.45192 26874 ft 338 kts 303°
2026-05-05 06:12 57.38953 9.41839 26516 ft 335 kts 303°
2026-05-05 06:13 57.40427 9.38512 26163 ft 332 kts 303°
2026-05-05 06:13 57.41865 9.35258 25815 ft 329 kts 303°
2026-05-05 06:13 57.43308 9.31975 25450 ft 327 kts 303°
2026-05-05 06:13 57.44739 9.28716 25089 ft 324 kts 303°
2026-05-05 06:14 57.46165 9.25493 24708 ft 323 kts 303°
2026-05-05 06:14 57.47628 9.22331 24287 ft 323 kts 304°
2026-05-05 06:14 57.49115 9.19214 23883 ft 322 kts 305°
2026-05-05 06:14 57.50608 9.16114 23455 ft 321 kts 305°
2026-05-05 06:15 57.52097 9.13023 22997 ft 319 kts 305°
2026-05-05 06:15 57.53567 9.09952 22573 ft 317 kts 305°
2026-05-05 06:15 57.55001 9.06936 22169 ft 314 kts 305°
2026-05-05 06:15 57.56438 9.03898 21769 ft 312 kts 305°
2026-05-05 06:16 57.57864 9.00871 21344 ft 310 kts 305°
2026-05-05 06:16 57.59275 8.97861 20940 ft 308 kts 305°
2026-05-05 06:16 57.60678 8.94867 20529 ft 306 kts 305°
2026-05-05 06:16 57.62073 8.91885 20141 ft 305 kts 304°
2026-05-05 06:17 57.63466 8.88909 19718 ft 304 kts 304°
2026-05-05 06:17 57.64833 8.85984 19314 ft 302 kts 304°
2026-05-05 06:17 57.66211 8.83034 18914 ft 301 kts 304°
2026-05-05 06:17 57.67685 8.80234 18502 ft 307 kts 313°
2026-05-05 06:18 57.69494 8.78030 18049 ft 313 kts 321°
2026-05-05 06:18 57.71369 8.75976 17596 ft 311 kts 321°
2026-05-05 06:18 57.73232 8.73937 17184 ft 309 kts 321°
2026-05-05 06:18 57.75083 8.71906 16760 ft 307 kts 321°
2026-05-05 06:19 57.76917 8.69886 16341 ft 305 kts 321°
2026-05-05 06:19 57.78741 8.67869 15929 ft 303 kts 321°
2026-05-05 06:19 57.80529 8.65887 15524 ft 302 kts 321°
2026-05-05 06:19 57.82332 8.63892 15115 ft 300 kts 320°
2026-05-05 06:20 57.83969 8.61590 14719 ft 289 kts 309°
2026-05-05 06:20 57.85390 8.58958 14346 ft 286 kts 308°
2026-05-05 06:20 57.86801 8.56344 13971 ft 284 kts 308°
2026-05-05 06:20 57.88203 8.53746 13588 ft 282 kts 308°
2026-05-05 06:21 57.89597 8.51167 13196 ft 280 kts 309°
2026-05-05 06:21 57.90976 8.48619 12826 ft 277 kts 309°
2026-05-05 06:21 57.92341 8.46092 12483 ft 274 kts 309°
2026-05-05 06:21 57.93682 8.43609 12042 ft 274 kts 310°
2026-05-05 06:22 57.95044 8.41100 11621 ft 274 kts 310°
2026-05-05 06:22 57.96404 8.38599 11208 ft 273 kts 311°
2026-05-05 06:22 57.97759 8.36097 10797 ft 273 kts 311°
2026-05-05 06:22 57.98871 8.33275 10414 ft 267 kts 291°
2026-05-05 06:23 57.99188 8.29969 10277 ft 249 kts 268°
2026-05-05 06:23 57.98759 8.26930 10146 ft 235 kts 246°
2026-05-05 06:23 57.97747 8.24541 9790 ft 237 kts 224°
2026-05-05 06:23 57.96409 8.22743 9452 ft 240 kts 221°
2026-05-05 06:24 57.95045 8.20948 9148 ft 238 kts 222°
2026-05-05 06:24 57.93815 8.18918 8833 ft 235 kts 225°
2026-05-05 06:24 57.92486 8.17092 8502 ft 237 kts 220°
2026-05-05 06:24 57.91117 8.15359 8187 ft 237 kts 220°
2026-05-05 06:25 57.89754 8.13632 7890 ft 236 kts 220°
2026-05-05 06:25 57.88404 8.11900 7578 ft 235 kts 220°
2026-05-05 06:25 57.87056 8.10143 7270 ft 235 kts 220°
2026-05-05 06:25 57.85741 8.08408 6978 ft 234 kts 220°
2026-05-05 06:26 57.84419 8.06639 6676 ft 233 kts 220°
2026-05-05 06:26 57.83221 8.04651 6365 ft 227 kts 240°
2026-05-05 06:26 57.82736 8.01939 6035 ft 219 kts 272°
2026-05-05 06:26 57.83138 7.99243 5677 ft 217 kts 300°
2026-05-05 06:27 57.83976 7.96875 5303 ft 219 kts 305°
2026-05-05 06:27 57.85858 7.92420 4663 ft 218 kts 321°
2026-05-05 06:27 57.87217 7.91260 4333 ft 221 kts 347°
2026-05-05 06:28 57.88734 7.90761 4041 ft 220 kts 348°
2026-05-05 06:28 57.90236 7.90281 4007 ft 219 kts 348°
2026-05-05 06:28 57.91745 7.89800 4006 ft 220 kts 348°
2026-05-05 06:28 57.93254 7.89315 4009 ft 220 kts 348°
2026-05-05 06:29 57.94766 7.88826 4008 ft 220 kts 348°
2026-05-05 06:29 57.96278 7.88334 4015 ft 220 kts 347°
2026-05-05 06:29 57.97777 7.87847 4010 ft 218 kts 347°
2026-05-05 06:29 57.99246 7.87368 4007 ft 214 kts 347°
2026-05-05 06:30 58.00668 7.86907 4006 ft 201 kts 347°
2026-05-05 06:30 58.02036 7.86472 4006 ft 199 kts 349°
2026-05-05 06:30 58.03421 7.86599 4006 ft 203 kts 11°
2026-05-05 06:30 58.04698 7.87793 4010 ft 208 kts 30°
2026-05-05 06:31 58.05888 7.89361 3879 ft 208 kts 30°
2026-05-05 06:31 58.07072 7.90921 3602 ft 207 kts 31°
2026-05-05 06:31 58.08254 7.92476 3290 ft 207 kts 31°
2026-05-05 06:31 58.09422 7.94011 2976 ft 207 kts 31°
2026-05-05 06:32 58.10608 7.95571 2643 ft 209 kts 31°
2026-05-05 06:32 58.11809 7.97152 2309 ft 211 kts 31°
2026-05-05 06:32 58.13006 7.98731 1971 ft 206 kts 31°
2026-05-05 06:32 58.14137 8.00227 1676 ft 192 kts 31°
2026-05-05 06:33 58.15199 8.01629 1331 ft 181 kts 33°
2026-05-05 06:33 58.16202 8.02953 1074 ft 171 kts 31°
2026-05-05 06:33 58.17148 8.04205 810 ft 157 kts 31°
2026-05-05 06:33 58.17992 8.05321 567 ft 144 kts 32°
2026-05-05 06:34 58.18796 8.06385 350 ft 138 kts 32°
2026-05-05 06:34 58.19583 8.07425 138 ft 137 kts 32°
2026-05-05 06:34 58.20298 8.08367 52 ft 81 kts 36°
2026-05-05 06:34 58.20460 8.08587 57 ft 4 kts 36°
2026-05-05 06:35 58.20536 8.08651 59 ft 16 kts 348°
2026-05-05 06:35 58.20558 8.08572 57 ft 10 kts 267°
2026-05-05 06:35 58.20538 8.08374 58 ft 20 kts 257°
2026-05-05 06:35 58.20493 8.08199 55 ft 16 kts 231°
2026-05-05 06:36 58.20416 8.08022 58 ft 20 kts 235°
2026-05-05 06:36 58.20351 8.07864 57 ft 16 kts 231°
2026-05-05 06:36 58.20290 8.07721 58 ft 16 kts 221°
2026-05-05 06:36 58.20242 8.07660 52 ft 5 kts 212°
2026-05-05 06:37 58.20237 8.07653 52 ft 0 kts 212°
2026-05-05 06:37 58.20214 8.07628 53 ft 10 kts 210°
2026-05-05 06:38 58.20154 8.07563 54 ft 1 kts 210°
2026-05-05 06:38 58.20140 8.07540 52 ft 9 kts 227°
2026-05-05 06:38 58.20147 8.07461 52 ft 7 kts 299°
2026-05-05 06:38 58.20154 8.07441 58 ft 0 kts 301°
2026-05-05 06:42 58.20153 8.07442 58 ft 0 kts 302°